THOR ABLESTAR DEB, 1521

Orbit data source: Space-Track

THOR ABLESTAR DEB, 1521 is space debris in LEO originally from a launch on Fri, 13 Aug 1965 UTC launched from the Air Force Western Test Range (AFWTR). Debris objects in space refer to the collection of defunct objects orbiting the Earth. Examples of debris include non-operational satellites, rocket bodies, and fragments generated from explosions, collisions, or faulty payload assembly.

Loading next visibility...
Identifier
1521, 1965-065K
Orbit
LEO
Last TLE update
13 hours ago
Origin
Manufacturer
NRL
Mission
Spacecraft
Bus & Motor
Unknown
Mass
Unknown
Launch date (UTC)
1965-08-13 (60 years ago)
Launch vehicle
Unknown
Launch site
Air Force Western Test Range (AFWTR)
Object type
Payload
Rocket body
Debris
Shape & HBR
Unknown
Radar Cross Section
Small (<0.1 m²)

Expand to show TLE details & history

TLE from 13 hours ago
0 THOR ABLESTAR DEB
1 01521U 65065K   25181.82061302  .00000023  00000-0  27896-4 0  9991
2 01521  89.9981 209.8384 0069862 167.6695  11.7749 13.33263633912587
Epoch: 2025-06-30T19:41Z
TLE epoch observation values (Epoch: 2025-06-30T19:41:40.964Z)
Latitude
0.27801°
Longitude
175.29278°
Altitude
1,085.997 km
Speed
7.334 km/s
True Right ascension
01h 59m 21s
True Declination
0° 16' 35"
Sunlit
Object was in daylight at epoch
Visualization orbit readout
Latitude
-7.27751°
Longitude
175.29293°
Altitude
1,089.567 km
Speed
7.331 km/s
Apparent Right ascension
04h 12m 59s
Apparent Declination
-29° 23' 34"
Sunlit
Object is in daylight
Visualization observer readout
Local Sidereal Time
19:58:29
Azimuth
95.263° ESE
Elevation
-43.235°
Doppler factor
1
Orbital elements
Apogee altitude
1,184.017 km
Perigee altitude
1,079.088 km
Semi-major axis
7,509.689 km
Eccentricity
0.00699
Inclination
89.9981°
RAAN
209.8384°
Arg. of periapsis
167.6695°
True anomaly
Unknown
Mean anomaly
11.7749°
Eccentric anomaly
Unknown
Mean motion
3.33511 °/min
Orbital period
107.94 mins
BSTAR
0.000027896
Loading maneuver chart data...
Loading SW <> Apogee altitude chart data...
Loading historical data...
Loading historical data...
Loading historical data...
Loading historical data...
Loading historical data...
Loading historical data...
Loading historical data...

THOR ABLESTAR DEB Visibility forecast

Observer location: undefined°, undefined°

Span
Click to sort rows by Start time (UTC) header in descending order
Start Az.
Max El. time (UTC)
Max El. Az.
Max El.
End time (UTC)
End Az.
11 mins2025-07-01 13:25:23.036Z21.963° NNE2025-07-01 13:30:23.036Z80.412° E31.87°2025-07-01 13:36:23.036Z150.834° SSE
9 mins2025-07-01 15:14:23.036Z332.654° NNW2025-07-01 15:18:23.036Z280.666° WNW28.787°2025-07-01 15:23:23.036Z224.987° SW
11 mins2025-07-02 01:32:23.036Z145.029° SSE2025-07-02 01:37:23.036Z81.483° E36.038°2025-07-02 01:43:23.036Z11.906° NNE
10 mins2025-07-02 03:20:23.036Z223.948° SW2025-07-02 03:25:23.036Z277.588° WNW26.695°2025-07-02 03:30:23.036Z331.417° NNW
|